Weather History for Tampa Macdill AFB, FL

Change the Weather History Date:

Tuesday, October 11, 2011

  Actual Average Record
Temperature  
Mean Temperature 78 °F -  
Max Temperature 87 °F 83 °F 89 °F (2002)
Min Temperature 71 °F 67 °F 62 °F (1996)
Cooling Degree Days 14    
Growing Degree Days 28 (Base 50)    
Moisture  
Dew Point 74 °F    
Average Humidity 89    
Maximum Humidity 100    
Minimum Humidity 64    
Precipitation  
Precipitation 0.00 in - - ()
Sea Level Pressure  
Sea Level Pressure 29.82 in    
Wind  
Wind Speed 4 mph (South)    
Max Wind Speed 14 mph    
Max Gust Speed -    
Visibility 10 miles    
Events      
Averages and records for this station are not official NWS values.
T = Trace of Precipitation, MM = Missing Value Source: NWS Daily Summary

Daily Weather History Graph

Daily Weather History Graph

Search for Another Location

Airport:

Trip Planner

Search our weather history database for the weather conditions in past years. The results will help you decide how hot, cold, wet, or windy it might be!

Date:

Astronomy

Oct. 11, 2011 Rise Set
Actual Time 7:27 AM EDT 7:05 PM EDT
Civil Twilight 7:04 AM EDT 7:28 PM EDT
Nautical Twilight 6:37 AM EDT 7:56 PM EDT
Astronomical Twilight 6:10 AM EDT 8:23 PM EDT
Moon 6:41 PM EDT (10/11) 7:01 AM EDT (10/11)
Length of Visible Light 12h 24m
Length of Day
11h 37m
Full, 100% of the Moon is Illuminated
Oct 11
Full
Oct 11
Full
Oct 19
Last Quarter
Oct 26
New
Nov 2
First Quarter

Hourly Weather History & Observations

Time (EDT) Temp. Heat Index Dew Point Humidity Pressure Visibility Wind Dir Wind Speed Gust Speed Precip Events Conditions
12:55 AM 71.8 °F - 71.6 °F 99% 29.80 in 10.0 mi Calm Calm - N/A   Clear
1:55 AM 72.7 °F - 72.7 °F 100% 29.79 in 10.0 mi Calm Calm - N/A   Clear
2:18 AM 71.6 °F - 71.6 °F 100% 29.78 in 10.0 mi NE 3.5 mph - N/A   Mostly Cloudy
2:55 AM 72.9 °F - 72.9 °F 100% 29.77 in 10.0 mi SE 5.8 mph - N/A   Mostly Cloudy
3:18 AM 73.4 °F - 73.4 °F 100% 29.77 in 10.0 mi Calm Calm - N/A   Mostly Cloudy
3:55 AM 73.9 °F - 73.9 °F 100% 29.77 in 10.0 mi Calm Calm - N/A   Clear
4:55 AM 72.5 °F - 72.5 °F 100% 29.77 in 10.0 mi South 3.5 mph - N/A   Overcast
5:52 AM 73.4 °F - 73.4 °F 100% 29.78 in 10.0 mi SE 4.6 mph - N/A   Mostly Cloudy
5:55 AM 73.4 °F - 73.4 °F 100% 29.78 in 10.0 mi SE 3.5 mph - N/A   Mostly Cloudy
6:55 AM 73.8 °F - 73.8 °F 100% 29.80 in 10.0 mi SSE 4.6 mph - N/A   Mostly Cloudy
7:34 AM 73.4 °F - 73.4 °F 100% 29.81 in 10.0 mi Calm Calm - N/A   Scattered Clouds
7:55 AM 73.6 °F - 73.6 °F 100% 29.81 in 10.0 mi SE 4.6 mph - N/A   Clear
8:55 AM 76.6 °F - 76.6 °F 100% 29.84 in 10.0 mi SSE 4.6 mph - N/A   Clear
9:28 AM 77.0 °F - 77.0 °F 100% 29.85 in 10.0 mi SE 5.8 mph - N/A   Mostly Cloudy
9:32 AM 77.0 °F - 77.0 °F 100% 29.85 in 10.0 mi SSE 4.6 mph - N/A   Mostly Cloudy
9:46 AM 77.0 °F - 77.0 °F 100% 29.84 in 10.0 mi SE 4.6 mph - N/A   Mostly Cloudy
9:48 AM 78.8 °F - 78.8 °F 100% 29.85 in 10.0 mi ESE 3.5 mph - N/A   Mostly Cloudy
9:55 AM 78.3 °F - 78.3 °F 100% 29.85 in 10.0 mi SE 5.8 mph - N/A   Mostly Cloudy
10:55 AM 80.6 °F 88.1 °F 78.6 °F 94% 29.85 in 10.0 mi SSW 4.6 mph - N/A   Clear
11:55 AM 83.7 °F 93.4 °F 77.2 °F 81% 29.85 in 10.0 mi South 8.1 mph - N/A   Scattered Clouds
12:06 PM 84.2 °F 94.1 °F 77.0 °F 79% 29.85 in 10.0 mi SSW 8.1 mph - N/A   Mostly Cloudy
12:13 PM 84.2 °F 94.1 °F 77.0 °F 79% 29.85 in 10.0 mi SSW 6.9 mph - N/A   Mostly Cloudy
12:21 PM 84.2 °F 94.1 °F 77.0 °F 79% 29.85 in 10.0 mi SW 8.1 mph - N/A   Mostly Cloudy
12:32 PM 84.2 °F 94.1 °F 77.0 °F 79% 29.85 in 10.0 mi SW 10.4 mph - N/A   Mostly Cloudy
12:55 PM 85.5 °F 96.3 °F 77.0 °F 76% 29.84 in 10.0 mi WSW 8.1 mph - N/A   Clear
1:55 PM 86.4 °F 94.2 °F 73.6 °F 66% 29.83 in 10.0 mi SW 12.7 mph - N/A   Clear
2:55 PM 86.9 °F 94.5 °F 73.6 °F 64% 29.81 in 10.0 mi SSW 13.8 mph - N/A   Partly Cloudy
3:55 PM 86.4 °F 95.1 °F 74.8 °F 68% 29.80 in 10.0 mi SSW 12.7 mph - N/A   Clear
4:55 PM 85.6 °F 91.8 °F 72.1 °F 64% 29.80 in 10.0 mi SW 10.4 mph - N/A   Clear
5:55 PM 83.3 °F 89.0 °F 72.7 °F 70% 29.81 in 10.0 mi SW 10.4 mph - N/A   Clear
6:55 PM 79.3 °F - 71.8 °F 78% 29.81 in 10.0 mi SW 4.6 mph - N/A   Partly Cloudy
7:55 PM 77.2 °F - 71.1 °F 81% 29.82 in 10.0 mi West 3.5 mph - N/A   Clear
8:55 PM 76.3 °F - 71.1 °F 84% 29.84 in 10.0 mi WSW 3.5 mph - N/A   Clear
9:55 PM 74.5 °F - 71.1 °F 89% 29.85 in 10.0 mi Calm Calm - N/A   Clear
10:55 PM 73.9 °F - 71.8 °F 93% 29.86 in 10.0 mi Calm Calm - N/A   Clear
11:55 PM 73.8 °F - 72.3 °F 95% 29.86 in 10.0 mi SW 3.5 mph - N/A   Clear